Location: Okie-Tex Star Party
(36.8978°N, 102.9520°W)
Time: 09:30:38
(UTC-05:00)

Daily predictions for brighter satellites

Satellite Brightness Start Highest point End
(mag) Time Altitude Azimuth Time Altitude Azimuth Time Altitude Azimuth
Lacrosse 5 rocket 2.7 21:25:38 10° WSW 21:29:17 42° NW 21:33:05 10° NNE
Cosmos 1743 2.9 21:27:11 10° N 21:30:57 51° E 21:34:40 10° SSE
Cosmos 2228 4.4 21:27:22 10° NNE 21:30:57 24° ENE 21:34:30 10° SE
Cosmos 1025 Rocket 3.1 21:26:44 10° S 21:31:07 85° E 21:35:30 10° N
ATLAS 3B R/B 4.4 21:31:04 10° SE 21:34:08 13° ESE 21:37:12 10° E
Cosmos 2251 Rocket 3.7 21:31:11 10° SSW 21:36:29 83° WNW 21:41:52 10° NNE
Cosmos 2098 Rocket 3.2 21:33:14 10° NNW 21:36:40 65° W 21:40:56 10° S
Meteor 1-23 Rocket 4.4 21:31:39 10° S 21:37:06 54° E 21:42:39 10° NNE
Cosmos 1892 Rocket 3.6 21:35:10 10° S 21:39:34 71° E 21:44:02 10° NNE
Centaur D AC-28 3.2 21:35:24 10° WSW 21:39:35 24° SSW 21:42:36 10° SE
ERS-1 Rocket 3.2 21:38:08 10° SSE 21:43:00 53° ENE 21:47:53 10° N
USA 186 1.8 21:41:22 10° S 21:44:16 65° WSW 21:47:01 10° NNW
Cosmos 1603 4.3 21:40:19 10° SSE 21:45:16 33° ESE 21:50:14 10° NE
Envisat 4.0 21:42:49 10° SE 21:47:12 30° ENE 21:51:35 10° N
Abrixas rocket 3.4 21:45:02 10° NW 21:48:15 37° NNE 21:51:25 10° E
Cosmos 1110 Rocket 4.0 21:45:44 10° NNW 21:51:03 85° ENE 21:56:18 10° SSE
USA 234 4.5 21:47:17 10° E 21:52:57 32° NNE 21:58:37 10° NNW
Okean 2 3.4 21:48:52 10° S 21:53:01 69° E 21:57:11 10° NNE
Meteor 2-4 Rocket 3.8 21:50:45 10° S 21:56:35 83° E 22:02:33 10° N
Cosmos 2297 3.8 21:56:57 10° NNW 22:02:41 80° WSW 22:08:24 10° SSE
H-2A R/B 3.9 22:00:04 10° S 22:03:50 45° W 22:07:39 10° NNW
ISS -2.4 22:01:40 10° SSW 22:04:31 28° SE 22:07:20 10° ENE
PSLV R/B 3.3 22:01:18 10° WSW 22:04:49 75° SSE 22:08:23 10° ENE
BREEZE-M DEB (TANK) 2.7 21:58:56 10° SW 22:05:26 83° SE 22:07:53 10° NE
Cosmos 1726 Rocket 4.0 22:01:13 10° NNW 22:05:37 64° W 22:09:58 10° S
FENGYUN 3A 4.4 22:02:10 10° S 22:07:22 52° W 22:12:39 10° NNW
Tsikada Rocket 4.3 22:01:57 10° SSE 22:08:03 49° E 22:14:10 10° NNE
CZ-2C R/B 1.4 22:06:30 11° S 22:08:36 44° W 22:10:51 10° NNW
Cosmos 1943 4.4 22:07:20 16° SE 22:09:58 21° E 22:14:08 10° NE
Cosmos 1461 3.5 22:12:14 10° NNW 22:16:21 44° NE 22:18:39 22° ESE
SPOT 5 3.0 22:15:34 19° SE 22:18:29 49° ENE 22:22:41 10° N
Cosmos 2058 Rocket 3.6 22:15:12 10° NNW 22:19:30 58° W 22:23:46 10° S
Cosmos 2285 Rocket 4.1 22:14:23 10° NNW 22:20:43 77° WSW 22:26:36 12° S
CZ-4 SHROUD 3.4 22:19:33 27° SE 22:21:00 52° ENE 22:24:05 10° N
Cosmos 1602 Rocket 3.5 22:18:09 10° S 22:22:37 76° E 22:27:05 10° N
GRACE-1 4.0 22:23:14 10° N 22:26:04 57° E 22:26:57 36° SSE
GRACE-2 4.0 22:23:40 10° N 22:26:31 58° E 22:27:23 37° SSE
Aureole 2 Rocket 3.7 22:23:04 10° SW 22:26:57 47° WNW 22:30:30 10° N
ALOS 4.3 22:26:03 10° SSW 22:29:53 25° W 22:33:44 10° NW
H-2A R/B 4.0 22:28:49 11° E 22:30:36 13° ENE 22:32:57 10° NE
Cosmos 1464 Rocket 4.3 22:25:05 10° NNW 22:31:10 67° W 22:37:16 10° S
Cosmos 1812 Rocket 3.7 22:31:18 10° N 22:35:37 57° E 22:37:38 29° SSE
SPOT 1/Viking Rocket 4.0 22:36:21 26° SE 22:38:49 44° ENE 22:43:41 10° N
Terra 3.7 22:39:33 13° E 22:40:48 15° ENE 22:43:25 10° NNE
Cosmos 1816 Rocket 4.5 22:39:04 13° S 22:44:44 75° E 22:51:04 10° N
H-2A R/B 3.4 22:42:30 11° SSW 22:46:15 34° W 22:50:12 10° NNW
USA 245 4.5 22:43:14 27° SE 22:46:29 56° ENE 22:51:44 10° N
PSLV R/B 3.7 22:48:37 36° SSW 22:49:33 54° W 22:52:36 10° NNW
SeaSat 1 2.4 22:47:09 29° SSE 22:49:41 85° WSW 22:54:39 10° NNW
Cosmos 2034 Rocket 4.4 22:43:30 10° NNW 22:49:48 65° W 22:55:17 14° S
Cosmos 1634 Rocket 4.4 22:45:10 10° N 22:51:05 46° E 22:53:37 31° SE
Cosmos 1666 4.2 22:49:01 10° NNW 22:52:33 33° W 22:55:25 14° SSW
Atlas Centaur 2 3.2 22:45:27 10° WSW 22:52:51 50° S 22:58:15 22° ESE
ARGOS 3.5 22:52:05 32° SE 22:54:14 50° ENE 22:59:29 10° N
Cosmos 2369 Rocket 3.0 22:51:04 10° N 22:56:16 36° ENE 22:58:17 28° E
Cosmos 1939 Rocket 4.3 22:53:33 15° SSW 22:56:29 35° W 23:00:19 10° NNW
CZ-4B R/B 3.5 22:53:45 10° NNE 22:58:52 87° WNW 23:02:50 18° SSW
NAVSTAR 52 R/B(PAM-D 4.3 23:00:27 10° WNW 23:04:48 77° N 23:05:05 70° ENE
NOAA 11 4.3 23:04:33 39° SE 23:06:23 59° ENE 23:11:43 10° N
COSMOS 2455 3.1 23:03:25 10° SW 23:09:23 68° WNW 23:15:23 10° NNE
MetOp-B 4.4 23:09:22 29° S 23:12:03 63° WSW 23:17:23 10° NNW
Cosmos 1953 Rocket 3.5 23:12:41 57° ESE 23:13:06 61° E 23:17:28 10° NNE
Meteor 2-12 Rocket 4.5 23:07:28 10° N 23:13:33 77° W 23:16:37 31° S
Meteor 1-22 Rocket 4.3 23:15:25 10° N 23:20:56 62° E 23:22:20 48° SE
ATLAS 3B R/B 2.8 23:16:06 10° SSW 23:23:47 77° ESE 23:31:23 10° NE
Cosmos 2346 Rocket 4.5 23:20:59 29° S 23:24:23 82° W 23:30:35 10° N
Abrixas rocket 4.1 23:22:21 10° WNW 23:24:24 23° WSW 23:24:24 23° WSW
Cosmos 1066 Rocket 4.3 23:25:41 32° SSW 23:28:26 76° W 23:34:14 10° N
Cosmos 407 Rocket 3.4 23:29:34 54° S 23:30:44 78° ESE 23:35:59 10° NNE
Cosmos 1346 Rocket 2.8 23:31:31 77° NW 23:31:31 77° NW 23:35:16 10° N
DELTA 2 DEB (DPAF) 4.0 23:34:01 77° S 23:34:21 87° WSW 23:38:52 10° NNW
Lacrosse 4 Rocket 1.6 23:35:27 61° NNE 23:35:27 61° NNE 23:38:52 10° NNE
USA 234 3.2 23:33:17 45° SSE 23:35:30 79° SW 23:42:06 10° NW
Cosmos-2242 4.1 23:31:50 10° NNE 23:35:14 33° ENE 23:35:14 33° ENE
Kosmos-1675 3.5 23:36:18 71° NE 23:36:18 71° NE 23:42:49 10° NNE
YAOGAN 6 4.0 23:36:50 30° WSW 23:37:09 31° W 23:40:31 10° NNW
ISS -1.1 23:38:05 10° W 23:40:55 27° NNW 23:43:45 10° NNE
SL-24 R/B 4.3 23:38:53 10° N 23:43:50 76° E 23:44:13 72° SE
Cosmos 1758 Rocket 3.7 23:47:14 65° W 23:47:24 66° W 23:51:46 10° N
Cosmos 1842 4.3 23:48:55 40° NNE 23:48:55 40° NNE 23:51:34 10° NNE
Cosmos 1954 Rocket 4.0 23:49:59 65° E 23:49:59 65° E 23:55:02 10° NNE
CARTOSAT-1 3.7 23:51:37 71° N 23:51:37 71° N 23:55:31 10° N
Cosmos 1943 4.1 23:49:01 14° SW 23:53:36 47° WNW 23:59:05 10° N
